INTELSAT 15 (IS-15)

Last updated on Fri Oct 11 2024 00:02:39 GMT+0000 (Coordinated Universal Time)

1 36106U 09067A 24284.56324396 -.00000181 00000+0 00000+0 0 9995 2 36106 0.0171 186.7070 0002333 20.7227 100.1523 1.00269220 35065
UTC large
Height (km)
Speed (km/s)
/
Latitude / Longitude
Inclination (degrees)
Orbital Period (minutes)
Azimuth
Elevation
Range (km)
Doppler Factor

Next 0 passes for location: London (51.5072 / 0.1276)

Sorry there are no passes over London.